Regional Weather Roundup
Issued by NWS Sioux Falls, SD

Home | Current Version | Previous Version | Text Only | Print | Product List | Glossary On
Versions: 1 2 3 4 5 6 7 8 9 10 11 12 13 14 15 16 17 18 19 20 21 22 23 24 25 26 27 28 29 30 31 32 33 34 35 36 37 38 39 40 41 42 43 44 45 46 47 48 49 50
000
ASUS43 KFSD 221502
RWRFSD

WEATHER ROUNDUP FOR SE SOUTH DAKOTA/SW MINNESOTA/NW IOWA
NATIONAL WEATHER SERVICE SIOUX FALLS SD
1000 AM CDT TUE APR 22 2014

NOTE: "FAIR" INDICATES FEW OR NO CLOUDS BELOW 12,000 FEET WITH NO
SIGNIFICANT WEATHER AND OR OBSTRUCTIONS TO VISIBILITY.


SDZ038>040-050-052>070-221600-
SOUTHEAST SOUTH DAKOTA

CITY           SKY/WX    TMP DP  RH WIND       PRES   REMARKS
CHAMBERLAIN      N/A     57  35  43 S17       30.06F
HURON          SUNNY     54  32  43 S13       30.12F
MADISON        FAIR      52  30  43 S9        30.14S
MITCHELL       SUNNY     55  33  43 S12       30.13F
SIOUX FALLS    MOSUNNY   52  31  44 S6        30.15F
WINNER         PTSUNNY   58  31  35 SE18G25   30.03F
YANKTON        SUNNY     52  32  46 SE9       30.16S
$$

MNZ071-072-080-081-089-090-097-098-221600-
SOUTHWEST MINNESOTA

CITY           SKY/WX    TMP DP  RH WIND       PRES   REMARKS
FAIRMONT       SUNNY     50  30  46 N12       30.17S
JACKSON        SUNNY     52  32  46 NE12G17   30.15S
LUVERNE        SUNNY     52  32  46 S5        30.16F
MARSHALL       SUNNY     54  32  43 CALM      30.15S
MONTEVIDEO     SUNNY     57  34  41 CALM      30.16S
PIPESTONE      SUNNY     52  30  43 S3        30.14S
REDWOOD FALLS    N/A     50  33  52 MISG      30.15F
TRACY          SUNNY     52  34  49 CALM      30.16R
WINDOM         SUNNY     52  34  50 N7        30.15S
WORTHINGTON    SUNNY     52  28  40 N6        30.18R
$$

IAZ001>003-012>014-020>022-031-032-NEZ013-014-SDZ071-221600-
NORTHWEST IOWA

CITY           SKY/WX    TMP DP  RH WIND       PRES   REMARKS
CHEROKEE       SUNNY     54  36  51 CALM      30.17S
DENISON        SUNNY     52  34  50 E6        30.16S
ESTHERVILLE    SUNNY     52  35  52 N14       30.14F
SHELDON        SUNNY     52  32  46 CALM      30.16S
SIOUX CITY     SUNNY     54  31  41 E10       30.15F
SPENCER        SUNNY     52  33  48 NE6       30.16S
STORM LAKE     SUNNY     50  32  50 NE9       30.16S
$$

ABBREVIATIONS USED IN REMARKS
   TC - TEMPERATURE IN CELSIUS
  WCI - WIND CHILL INDEX
   HX - HEAT INDEX
  VSB - VISIBILITY




USA.gov is the U.S. government's official web portal to all federal, state and local government web resources and services.